www.pogodaiklimat.ru

Погода и климат >> Архив погоды >> Иран >> Omidieh


ПОГОДА в Omidieh

  • Прогноз погоды в Omidieh
  • Монитор погоды в Omidieh
  • Климат города

АРХИВ ПОГОДЫ в Omidieh

Время (UTC), дата Ветер
(напр.,м/с)
 
Видим.   Явления Облачность Т
(С)
Тd
(С)
f
(%)
Тe
(С)
Тes
(С)
Комфортность P
(гПа)
Po
(гПа)
Тmin
(С)
Tmax
(С)
R
(мм)
R24
(мм)
S
(см)
18 12.07 штиль 0 10 км ясно +41.0 +8.8 15 +39 +39 очень
жарко
992.6 989.7
21 12.07 штиль 0 10 км ясно +36.4 +5.1 14 +34 +34 очень
жарко
992.8 989.9
00 13.07 ЮВ 2 10 км ясно +31.1 +6.5 21 +29 +29 жарко 993.1 990.2
03 13.07 штиль 0 6000 м мгла ясно +32.4 +5.7 19 +30 +32 жарко 993.5 990.6 +30.8
06 13.07 штиль 0 4000 м мгла ясно +40.3 +6.8 13 +38 +57 опасность
солнечного
удара
994.2 991.3
09 13.07 СЗ 5 6000 м мгла ясно +47.2 +3.7 7 +44 +55 опасность
перегрева
993.7 990.8
12 13.07 З 5 10 км ясно +49.0 +0.5 5 +45 +51 опасность
перегрева
992.4 989.5
15 13.07 СЗ 3 10 км ясно +48.1 +2.9 7 +45 +45 опасность
перегрева
991.5 988.6 +49.3
18 13.07 С 6 7000 м мгла ясно +40.8 +6.4 12 +38 +38 очень
жарко
993.3 990.4
21 13.07 СЗ 5 6000 м мгла ясно +36.3 +6.0 15 +34 +34 очень
жарко
993.8 990.9
00 14.07 штиль 0 8000 м мгла ясно +33.4 +6.9 19 +31 +31 жарко 993.8 990.9
03 14.07 С 4 7000 м мгла ясно +31.8 +8.8 24 +31 +32 жарко 994.1 991.2 +30.8
06 14.07 С 7 10 км ясно +41.8 +6.1 12 +39 +43 очень
жарко
995.8 992.9
09 14.07 С 9 10 км ясно +46.3 -1.4 5 +42 +44 опасность
перегрева
995.3 992.4
12 14.07 С 11 10 км ясно +47.4 -1.9 5 +43 +43 опасность
перегрева
994.3 991.4
15 14.07 С 9 10 км ясно +44.9 +1.0 7 +41 +41 опасность
перегрева
994.0 991.1 +47.8
18 14.07 С 6 10 км ясно +36.1 -0.3 10 +32 +32 жарко 995.1 992.2
21 14.07 С 5 10 км ясно +32.5 +0.2 13 +29 +29 жарко 994.8 991.9
00 15.07 С 5 10 км ясно +33.6 -0.8 11 +30 +30 жарко 994.8 991.9
03 15.07 С 2 10 км ясно +30.5 +2.5 17 +28 +30 жарко 995.4 992.5 +28.6
06 15.07 С 7 10 км ясно +44.1 -1.7 6 +40 +44 очень
жарко
996.4 993.5
09 15.07 СЗ 9 10 км ясно +45.9 +1.3 7 +42 +45 опасность
перегрева
995.9 993.0
12 15.07 СЗ 9 10 км ясно +46.5 +4.1 8 +43 +45 опасность
перегрева
994.8 991.9
15 15.07 З 9 10 км ясно +44.4 +2.4 8 +41 +41 опасность
перегрева
994.3 991.4 +47.2
18 15.07 С 5 10 км ясно +37.8 +3.3 12 +35 +35 очень
жарко
995.5 992.5
21 15.07 З 1 10 км ясно +32.5 +2.8 15 +30 +30 жарко 995.2 992.2
00 16.07 штиль 0 10 км ясно +29.3 +5.1 22 +28 +28 жарко 995.2 992.2
03 16.07 В 3 10 км ясно +29.0 +6.0 23 +28 +29 жарко 995.6 992.6 +28.8
06 16.07 С 2 10 км ясно +42.2 +5.5 11 +39 +53 опасность
солнечного
удара
995.7 992.8
09 16.07 С 10 10 км ясно +46.1 +5.0 9 +43 +44 опасность
перегрева
995.3 992.4
12 16.07 С 10 10 км ясно +46.3 +4.3 8 +43 +44 опасность
перегрева
993.5 990.6
15 16.07 СЗ 12 10 км ясно +44.6 +4.7 9 +42 +42 опасность
перегрева
993.2 990.2 +46.6
18 16.07 С 4 10 км ясно +37.0 +5.9 15 +34 +34 очень
жарко
994.1 991.2
21 16.07 С 4 10 км ясно +33.6 +6.7 19 +32 +32 жарко 994.5 991.5
00 17.07 С 5 10 км ясно +33.0 +9.6 24 +32 +32 жарко 993.7 990.8
03 17.07 С 4 8000 м мгла ясно +31.5 +10.0 27 +31 +32 жарко 994.4 991.5 +30.4
06 17.07 СЗ 7 10 км ясно +40.3 +10.6 17 +39 +43 очень
жарко
994.9 992.0
09 17.07 СЗ 9 10 км ясно +43.7 +8.4 12 +42 +44 опасность
перегрева
994.5 991.6
12 17.07 З 7 10 км ясно +45.6 +7.1 10 +43 +46 опасность
перегрева
993.1 990.2
15 17.07 СЗ 9 10 км ясно +43.9 +7.2 11 +41 +41 опасность
перегрева
992.7 989.8 +45.6
18 17.07 С 5 7000 м мгла ясно +37.4 +7.6 16 +35 +35 очень
жарко
994.1 991.2
21 17.07 С 5 10 км ясно +32.9 +7.4 21 +31 +31 жарко 994.5 991.6
00 18.07 С 4 10 км ясно +30.3 +7.9 25 +29 +29 жарко 994.1 991.2
03 18.07 С 2 8000 м мгла ясно +29.4 +8.4 27 +29 +30 жарко 995.0 992.1 +28.3
06 18.07 С 1 7000 м мгла 5/5 1200 м
[Sc diur, vesp]
+37.1 +8.9 18 +35 +44 очень
жарко
995.7 992.8
09 18.07 З 4 8000 м мгла ясно +43.4 +6.0 11 +41 +55 опасность
перегрева
995.2 992.3
12 18.07 З 7 10 км ясно +45.2 +5.9 10 +43 +46 опасность
перегрева
993.9 991.0
15 18.07 З 8 10 км ясно +43.8 +4.7 9 +41 +41 опасность
перегрева
994.1 991.2 +45.2
18 18.07 ЮЗ 1 10 км ясно +37.6 +5.3 14 +35 +35 очень
жарко
995.6 992.7
21 18.07 ЮВ 3 10 км ясно +33.9 +10.9 25 +33 +33 жарко 996.1 993.2
00 19.07 Ю 4 10 км ясно +31.8 +18.2 44 +36 +36 очень
душно
996.1 993.2
03 19.07 Ю 4 8000 м мгла ясно +31.4 +15.6 39 +34 +35 душно 996.9 994.0 +30.7
06 19.07 Ю 5 7000 м мгла ясно +38.2 +17.8 30 +41 +49 опасность
перегрева
997.6 994.7
09 19.07 З 6 8000 м мгла ясно +44.2 +12.0 15 +43 +52 опасность
перегрева
997.0 994.1
12 19.07 СЗ 7 10 км ясно +46.3 +5.5 9 +44 +47 опасность
перегрева
995.4 992.5

 

Местоположение метеостанции Omidieh (Иран): широта 30.77 долгота 49.67 высота над уровнем моря 27 м.

В архиве по умолчанию представлена погода в Omidieh за последнюю неделю. Архивные данные за месяц целиком и за предыдущие месяцы, начиная с января 2011 года, Вы можете получить, выбрав интересующий диапазон дат из раскрывающегося списка и нажав кнопку "Ввод!".


*Определитесь, кто Вы:
робот инопланетянин человек

Внимание! Время в таблицах - всемирное. Для получения местного времени необходимо прибавить поправку, которая в Omidieh равна 3.5 ч.

Смотрите также архив погоды в соседних городах и на ближайших метеорологических станциях:

Погода в Gach Saran (Иран) (112 км)
Погода в Ahwaz (Иран) (114 км)
Погода в Masjed-Soleyman (Иран) (140 км)
Погода в Fao (Ирак) (143 км)
Погода в Abadan (Иран) (143 км)
Погода в Bubiyan (Кувейт) (167 км)
Погода в Khark (Иран) (179 км)
Погода в Basrah (Ирак) (182 км)
Погода в Yasuj (Иран) (183 км)
Погода в Basrah Airport (Ирак) (183 км)

Пояснения к столбцам:

Ветер - указаны скорость ветра в м/с - средняя за 10 мин, порывы в срок и между сроками (в фигурных скобках) и направление, откуда дует ветер: С - северный, СВ - северо-восточный, В - восточный, ЮВ - юго-восточный, Ю - южный, ЮЗ - юго-западный, З - западный, СЗ - северо-западный.
Видимость - горизонтальная дальность видимости в метрах или километрах. При видимости от 1 до 10 км при отсутствии осадков обычно наблюдается дымка, при ухудшении видимости до 1 км и менее - туман. В сухую погоду видимость может ухудшаться дымом, пылью или мглою.
Явления - указаны атмосферные явления, наблюдавшиеся в срок или в последний час перед сроком; фигурными скобками обозначены явления, наблюдавшиеся между сроками (за 1-3 часа до срока); квадратными скобками обозначены град или гололедные отложения с указанием их диаметра в мм.
Облачность - указаны через наклонную черту общая и нижняя облачность в баллах и высота нижней границы облаков в метрах; квадратными скобками обозначены формы облаков: Ci - перистые, Cs - перисто-слоистые, Cc - перисто-кучевые, Ac - высококучевые, As - высокослоистые, Sc - слоисто-кучевые, Ns - слоисто-дождевые, Cu - кучевые, Cb - кучево-дождевые. Подробнее классификацию облаков см. в Атласе облаков (PDF).
T - Температура воздуха - температура, измеренная на высоте 2 м над землей.
Td - Температура точки росы - температура, при понижении до которой содержащийся в воздухе водяной пар достигнет насыщения.
f - Относительная влажность воздуха - влажноcть воздуха, измеренная на высоте 2 м над землей.
Te - Эффективная температура - температура, которую ощущает одетый по сезону человек в тени. Характеристика душности погоды. При расчете учитывается влияние влажности воздуха и скорости ветра на теплоощущения человека.
Tes - Эффективная температура на солнце - температура, которую ощущает человек, с поправкой на солнечный нагрев. Характеристика знойности погоды. Зависит от высоты солнца над горизонтом, облачности и скорости ветра. Ночью, в пасмурную погоду, а также при ветре 12 м/с и более поправка равна нулю.
P - Атмосферное давление - приведенное к уровню моря атмосферное давление.
Po - Атмосферное давление - измеренное на уровне метеостанции атмосферное давление.
Tmin - Минимальная температура - минимум температуры воздуха на высоте 2 м над землей.
Tmax - Максимальная температура - максимум температуры воздуха на высоте 2 м над землей.
R - Количество осадков - Количество выпавших осадков за период времени, мм. При наведении курсора мыши на число - период времени, за который выпало указанное количество осадков.
R24 - Количество осадков - Количество выпавших осадков за 24 часа, мм.
S - Снежный покров - Высота снежного покрова, см. При наведении курсора мыши на число - состояние снежного покрова и степень покрытия местности в баллах.